Wind_Speed
6 5 5 4 4 4 4 4 4 4 4 4 5 6 8 9 10 10 11 12 13 13 14 14 14 15 16 16 16 16 15 15 15 15 14 14 14 14 13 13 13 13 14 15 16 16 16 16 15 14 13 12 14 16 17 18 17 18 17 17 17 16 15 14 13 12 12 13 14 13 14 15 15 16 17 20 21 22 21 20 18 18 17 16 16
7 6 5 4 4 5 5 4 4 4 3 3 4 6 8 9 10 11 12 13 13 13 14 15 15 15 16 16 16 16 16 16 16 16 16 16 16 16 16 15 15 16 17 17 18 18 18 18 16 15 15 16 16 16 18 19 19 19 19 19 18 17 15 13 13 13 13 13 14 14 14 14 14 14 15 17 18 20 21 21 20 19 18 17 17
7 6 5 4 5 5 5 5 4 3 3 4 5 7 8 8 8 9 9 9 9 10 12 14 14 14 15 14 14 15 16 16 17 16 16 16 17 17 18 17 17 17 18 19 19 20 19 19 17 17 18 19 19 18 18 20 20 20 21 21 20 18 14 12 13 13 13 14 15 14 14 13 13 13 13 14 16 18 20 21 22 20 19 18 18
8 6 5 5 6 6 6 6 4 3 4 5 7 8 8 7 6 5 5 5 6 7 8 9 11 12 13 13 12 13 15 16 17 17 17 16 15 16 17 18 18 18 19 19 19 19 19 18 17 17 19 20 20 19 19 20 21 22 22 23 22 18 13 12 14 13 13 15 15 14 13 13 12 13 13 13 14 15 17 19 21 21 20 19 19
8 6 5 6 7 7 7 6 4 4 5 6 7 8 7 5 4 3 3 4 4 5 6 7 9 10 11 11 11 12 13 15 16 16 16 15 14 13 14 15 17 18 19 19 18 18 19 17 16 18 19 18 17 17 18 20 21 22 23 23 21 17 12 12 13 11 12 13 14 15 15 13 13 14 14 14 14 14 15 16 19 21 21 19 19
9 7 6 7 8 8 7 6 5 5 6 7 8 7 6 4 3 4 4 4 5 5 6 7 8 10 11 12 11 11 12 12 13 13 12 12 12 12 12 13 13 15 16 16 17 17 18 16 15 17 17 15 16 16 17 19 21 22 22 22 20 15 12 12 12 11 13 13 14 17 17 14 14 14 14 14 14 14 14 15 17 19 20 20 19
10 7 7 8 9 9 8 6 5 6 8 9 9 7 6 5 4 4 5 5 6 6 6 7 8 10 10 10 10 11 11 11 11 10 10 10 11 11 12 13 13 13 14 14 15 15 15 14 12 14 15 15 16 16 17 19 21 21 21 22 19 13 11 10 12 11 12 13 14 16 17 15 14 13 12 12 13 14 14 15 15 17 19 20 20
10 8 7 8 10 10 8 7 7 8 9 10 9 7 5 4 4 5 5 6 6 6 6 7 9 9 9 9 11 11 12 11 11 10 10 11 11 12 13 13 13 13 13 13 14 14 13 13 13 14 15 16 15 15 16 16 18 19 19 19 16 12 10 8 11 11 9 11 14 15 17 16 13 12 12 12 11 13 15 15 15 16 18 19 20
11 8 7 8 10 10 9 8 8 9 10 10 9 7 5 4 5 5 6 7 7 7 7 8 9 9 10 11 12 12 12 12 11 11 10 10 11 12 12 13 12 11 11 10 12 12 11 10 12 15 15 15 14 12 13 14 16 16 16 16 13 11 11 10 11 10 7 11 14 15 17 15 12 13 12 11 11 12 14 15 16 16 17 19 20
12 9 8 7 9 11 9 9 9 9 10 10 9 7 6 5 5 6 6 7 7 7 8 8 9 11 12 11 11 11 11 11 11 10 10 10 10 10 11 12 11 11 9 9 10 11 9 8 10 13 15 15 14 13 13 13 14 14 15 15 12 9 11 13 13 9 7 11 12 13 16 14 11 12 11 11 12 12 13 15 16 16 16 18 20
14 11 9 7 8 11 11 10 10 10 10 9 8 7 5 5 6 5 5 6 7 7 8 8 10 11 11 10 11 11 11 11 10 9 8 9 9 10 11 11 10 10 8 8 8 12 10 10 11 12 13 13 13 12 13 13 12 13 14 14 11 8 9 11 12 11 11 11 10 11 15 14 11 11 11 11 12 12 13 14 15 16 15 17 19
15 13 11 9 8 10 11 10 10 11 11 10 8 7 6 6 6 6 6 7 7 7 7 9 10 11 10 11 10 10 10 8 8 10 9 9 10 10 11 10 10 10 9 9 9 12 10 10 10 10 11 11 11 11 12 12 11 11 13 13 10 8 8 9 10 11 12 11 10 11 14 14 11 10 11 12 12 12 13 14 15 16 16 16 18
17 16 14 11 9 9 11 11 11 11 11 10 9 8 7 7 6 7 7 7 8 7 8 9 8 9 10 12 10 9 8 6 12 14 10 9 9 9 9 9 10 10 8 8 11 11 9 9 9 9 10 10 9 8 9 10 8 10 12 12 11 8 7 8 7 8 9 8 9 11 12 12 10 9 10 11 12 12 13 14 14 16 17 16 18
18 17 16 14 11 10 10 10 10 11 11 10 9 9 8 7 7 7 7 8 8 7 7 6 6 7 8 9 8 10 8 6 15 15 8 11 10 7 9 8 9 11 8 6 10 12 9 10 10 10 11 9 7 5 6 7 7 9 11 11 11 9 8 5 3 6 8 7 9 10 10 10 8 9 10 9 10 12 12 13 12 14 17 18 18
18 19 18 17 14 12 11 10 10 11 11 11 10 9 8 7 6 7 7 8 8 7 7 5 6 8 5 3 2 6 5 5 16 15 8 12 10 8 10 8 9 11 7 4 6 11 9 8 11 12 11 7 5 4 4 6 6 8 9 10 10 8 6 2 2 4 6 7 9 9 8 8 7 8 8 7 8 9 11 12 11 12 15 17 18
18 19 19 19 17 14 13 12 11 11 11 11 11 10 8 7 7 8 8 10 9 7 7 6 7 7 3 2 1 2 2 3 14 13 10 12 9 9 11 9 10 9 7 4 1 8 8 6 9 11 9 5 3 3 4 5 6 7 8 8 8 5 3 1 2 3 6 7 7 7 7 6 6 6 7 7 7 8 10 11 10 11 12 15 17
19 18 19 19 19 16 15 14 13 12 12 11 11 10 9 8 9 9 9 10 9 8 8 7 7 7 4 2 1 1 1 3 8 7 12 14 9 12 12 10 11 8 7 6 3 5 7 7 9 9 7 4 2 2 3 4 6 6 6 6 4 2 3 2 1 1 4 5 5 5 5 6 5 6 6 7 7 8 9 10 10 10 11 13 15
20 18 19 19 19 17 15 15 15 14 12 11 11 11 10 9 9 9 9 9 9 10 10 8 7 7 4 2 2 3 3 5 4 3 11 13 10 14 13 12 13 8 7 9 7 7 5 6 8 8 7 4 2 1 3 4 5 6 5 4 2 3 4 3 2 2 3 4 5 5 5 5 6 6 7 8 8 8 9 9 9 10 10 12 14
21 19 18 19 19 17 15 15 16 15 13 12 12 11 10 10 10 10 9 10 10 10 10 9 7 6 5 4 4 5 5 5 2 1 5 7 12 16 14 15 14 9 9 9 9 8 6 6 6 8 7 5 3 1 3 3 4 5 4 2 1 1 4 5 3 3 5 5 5 5 5 5 6 6 6 7 9 9 10 9 9 9 10 11 13
22 19 18 19 18 17 15 15 17 17 15 13 13 12 11 11 11 11 10 10 10 10 9 8 7 7 7 6 7 6 6 6 5 4 2 2 9 12 14 18 15 11 10 10 9 7 7 6 5 8 7 4 3 1 3 2 2 2 3 1 2 0 3 5 3 4 5 5 5 5 5 5 5 6 5 6 8 9 10 9 8 10 10 11 13
21 20 18 18 18 16 15 15 17 18 17 15 14 13 12 13 13 11 10 10 10 10 10 9 9 9 8 8 8 8 9 6 3 3 3 2 3 4 10 15 15 14 11 9 9 6 6 7 5 6 6 4 2 1 1 2 2 1 2 1 1 1 2 3 3 3 5 5 6 6 5 5 5 5 6 5 6 8 8 7 8 10 10 11 14
21 20 18 18 18 16 15 15 16 17 18 17 15 14 13 14 13 11 10 9 9 9 9 10 10 10 10 10 10 9 8 4 2 3 3 4 3 3 7 8 9 12 12 11 8 4 5 7 5 5 5 4 2 1 1 1 1 1 1 1 0 1 3 4 3 3 5 6 7 6 5 5 5 5 5 5 6 6 6 6 7 9 9 11 13
20 20 18 18 18 17 16 15 16 17 18 18 17 15 14 14 13 12 10 9 9 10 9 10 11 11 11 11 11 10 8 5 7 8 5 4 3 3 6 7 6 9 12 12 7 4 5 8 6 4 4 3 2 2 1 0 1 1 0 1 0 0 2 4 4 3 4 6 7 6 6 6 5 5 5 5 6 6 6 6 7 9 9 10 12
20 19 19 19 18 17 17 16 16 17 18 18 17 15 14 14 14 13 12 11 10 11 10 10 11 11 10 10 11 11 11 10 11 12 10 8 5 3 5 7 5 7 11 11 7 5 5 8 7 4 3 2 2 2 1 1 2 2 1 2 1 1 1 3 4 3 3 4 6 6 6 5 5 5 5 6 7 6 6 7 8 9 10 11 12
21 20 19 19 18 18 18 17 17 17 18 18 16 15 15 15 15 15 14 13 11 11 10 10 10 10 10 11 11 12 13 13 13 13 12 10 6 3 4 4 3 5 8 8 7 6 4 7 8 6 4 3 2 2 1 1 2 2 3 3 2 2 2 3 4 4 4 4 4 6 7 5 5 5 5 6 7 7 7 8 8 9 10 11 12
22 21 19 18 19 19 18 18 18 18 18 18 16 15 15 15 15 15 16 14 12 10 10 9 10 11 12 12 12 12 13 12 13 14 13 11 8 5 4 4 3 4 5 6 6 4 3 6 7 6 5 4 3 2 1 2 2 3 3 3 3 2 2 3 4 4 4 4 4 5 7 6 5 5 5 6 7 7 7 8 8 9 10 11 12
22 22 20 19 19 19 18 18 19 19 19 18 17 17 16 15 15 15 16 15 13 11 11 11 12 13 13 13 13 12 12 12 13 13 13 12 11 9 6 3 2 2 2 4 5 3 2 4 4 5 6 5 4 3 2 2 3 4 4 4 3 3 3 4 4 3 3 4 4 4 6 7 6 5 5 5 5 7 7 7 8 9 10 11 11
21 22 21 21 20 19 19 18 19 20 20 19 19 18 17 16 15 15 16 15 13 13 13 13 14 15 14 13 13 12 11 12 12 12 12 10 10 10 8 4 2 1 2 1 2 2 2 4 3 3 6 7 4 3 3 2 3 4 5 5 4 4 4 3 4 3 3 4 4 4 5 6 7 6 6 5 5 6 7 7 8 9 10 10 11
19 21 21 21 22 21 20 20 19 20 20 21 20 19 19 18 17 16 16 16 14 14 14 14 15 15 14 13 12 12 11 11 11 11 11 9 8 8 8 6 4 2 1 1 1 1 1 3 2 2 6 8 6 4 3 1 2 4 5 6 5 4 4 4 4 4 4 4 4 4 4 5 6 6 7 6 5 6 7 7 8 9 10 10 10
17 18 18 19 20 20 21 20 20 19 20 21 21 20 19 19 19 18 17 17 16 15 15 16 16 16 15 13 12 12 12 12 12 12 11 9 7 6 6 7 6 5 4 2 2 2 2 2 3 4 7 8 7 4 2 2 1 3 4 6 5 4 4 4 5 5 6 6 5 5 5 5 6 7 8 8 7 7 7 8 9 9 10 10 10
16 16 17 17 18 18 19 20 20 20 20 21 22 21 20 20 20 20 18 18 18 18 17 18 18 16 15 14 13 13 12 13 13 13 12 10 8 7 7 8 8 8 7 4 2 2 3 4 5 6 7 8 8 4 2 2 2 2 4 5 5 5 4 3 4 5 7 7 7 7 7 7 7 7 7 8 9 9 9 9 10 11 11 11 10
18 17 17 17 18 18 19 20 21 21 20 21 21 22 21 21 21 20 19 18 19 20 19 18 18 17 16 15 14 13 12 13 13 13 13 12 10 9 8 9 8 7 7 7 4 4 6 6 6 6 7 8 7 5 3 3 2 1 3 5 5 5 6 6 6 6 7 8 8 8 9 8 8 7 7 7 8 9 10 11 11 11 11 12 12
20 19 19 19 19 19 19 20 21 21 21 21 20 21 22 22 21 21 21 20 21 21 20 19 18 17 16 16 15 14 13 13 13 14 14 13 12 11 9 7 6 6 6 7 6 5 7 6 6 7 7 7 7 6 5 4 4 3 3 4 5 6 7 9 9 7 5 7 8 9 10 10 9 8 8 7 8 9 10 11 12 12 13 13 13
20 21 21 21 20 20 20 21 21 20 20 20 20 21 22 22 22 22 21 22 22 22 21 20 19 18 18 17 16 15 14 15 15 14 13 13 13 12 9 7 6 6 5 6 5 4 5 6 6 6 7 7 7 7 6 5 5 5 4 4 5 6 7 8 8 5 2 5 9 10 10 10 10 11 10 9 9 10 11 11 12 13 13 14 14
19 20 20 21 21 21 21 21 20 20 20 20 20 21 22 23 23 23 22 22 22 22 22 22 21 20 19 19 17 16 15 16 16 15 13 13 13 11 10 9 8 7 6 6 6 5 4 4 4 5 7 7 7 6 6 6 6 6 6 6 6 7 7 7 7 4 2 5 9 11 9 9 10 12 12 10 10 11 12 13 13 13 13 13 13
19 19 18 19 20 21 22 22 22 21 20 20 21 22 23 24 24 25 24 23 22 22 22 22 22 21 20 20 18 17 16 17 16 15 14 13 13 12 11 10 9 8 8 8 9 7 5 4 4 5 7 7 7 7 7 7 6 6 6 6 6 6 6 6 5 4 3 4 7 9 9 9 11 12 11 11 12 14 15 15 16 16 16 15 15
18 19 19 19 20 22 23 24 24 23 22 21 22 23 24 24 25 25 25 24 23 22 22 22 22 22 21 20 19 17 17 16 15 14 13 13 14 13 11 9 8 9 9 9 9 8 8 7 7 7 8 8 8 8 8 7 6 5 4 4 4 4 5 4 2 2 3 3 4 6 6 7 7 7 7 10 13 17 19 19 19 19 20 20 19
18 20 20 20 21 22 23 24 25 25 25 24 24 24 24 25 25 25 24 25 25 23 23 22 23 23 22 21 19 18 17 17 16 14 13 13 13 13 11 9 8 8 8 8 7 8 8 8 7 8 9 11 10 9 8 8 8 5 3 3 3 3 3 1 2 1 1 1 1 2 2 1 1 1 2 3 5 8 10 11 12 13 14 14 14
17 19 20 21 20 21 22 23 24 25 26 26 26 26 25 26 26 25 25 26 26 25 24 23 24 24 23 22 20 19 18 17 16 15 14 13 13 13 11 9 9 8 7 7 7 7 7 6 6 8 9 9 9 8 8 9 8 5 3 3 2 1 2 3 4 4 5 6 6 7 8 8 7 7 7 7 8 7 6 5 3 2 2 2 2
17 17 17 18 19 20 21 22 24 25 26 27 27 27 27 26 26 26 26 26 26 26 25 24 24 24 24 23 21 21 19 18 16 15 14 13 13 13 12 10 9 8 8 7 7 6 6 6 7 8 9 8 8 8 8 8 6 4 2 3 1 3 5 5 5 7 9 11 13 15 15 15 15 15 15 16 16 16 16 14 12 11 11 10 10
20 19 18 17 17 18 20 22 23 25 26 28 28 28 28 28 28 28 28 27 26 26 25 24 24 24 23 22 21 21 19 18 16 15 14 13 13 14 13 12 11 9 8 8 7 7 7 8 9 9 9 8 8 9 9 7 5 3 3 3 1 4 7 8 8 9 12 15 18 21 21 20 19 19 19 20 20 19 19 18 17 15 14 14 13
20 21 21 21 19 17 17 19 21 23 26 27 28 29 29 29 29 28 28 28 28 26 26 25 25 24 23 22 22 21 19 18 16 15 14 13 13 13 13 12 11 10 9 8 8 8 8 9 9 9 8 8 9 10 10 8 6 5 5 4 2 6 8 10 12 12 15 19 23 25 25 23 23 23 24 25 24 23 23 22 20 18 18 18 17
19 19 20 22 23 21 19 18 18 20 22 25 27 28 29 29 29 29 28 29 29 28 28 26 26 26 25 24 23 22 20 18 16 14 13 11 11 12 11 10 9 9 9 9 10 10 9 9 9 8 8 8 10 11 9 7 6 5 4 3 3 6 7 9 10 11 15 21 27 29 27 25 26 28 29 29 27 27 25 24 22 21 21 22 21
19 19 19 20 21 22 22 21 20 19 19 21 23 26 28 28 29 29 29 29 30 30 29 29 28 28 26 25 24 23 22 19 16 14 12 11 10 10 9 9 8 8 9 9 9 9 9 9 9 9 9 8 8 8 6 6 6 5 4 3 5 8 6 8 10 12 15 21 29 32 28 25 29 32 32 30 29 28 27 25 24 24 24 24 24
17 17 18 18 19 20 21 22 23 23 21 19 19 21 24 26 27 29 30 30 31 31 31 31 30 29 28 27 25 24 24 20 16 16 16 13 10 9 10 10 9 9 9 9 8 8 7 8 8 9 9 8 8 6 4 5 6 6 5 3 5 9 9 13 16 17 17 22 30 33 27 24 28 32 32 29 28 28 27 25 25 25 24 24 24
15 16 17 17 18 18 19 20 21 22 23 21 19 19 20 22 24 26 28 30 32 33 33 32 31 30 29 28 27 27 25 21 19 19 19 16 14 14 13 12 10 9 7 6 6 5 5 5 5 6 6 6 6 4 4 5 5 5 3 3 9 12 15 19 20 20 19 22 29 31 23 18 24 29 27 25 26 27 26 24 24 24 24 24 24
14 15 16 17 17 17 17 18 19 20 21 21 20 19 18 19 21 22 25 27 29 31 33 33 32 31 30 30 30 29 26 23 22 22 22 20 19 18 15 11 9 8 5 4 3 2 2 3 3 4 4 3 3 2 1 1 2 2 5 12 17 20 23 22 21 20 18 17 21 25 20 16 21 27 23 20 24 25 24 24 24 24 24 24 24
15 15 15 17 17 17 16 17 17 19 20 20 21 21 19 18 18 19 22 24 26 29 31 32 32 32 32 31 30 30 27 24 24 24 24 22 21 20 16 13 12 10 8 6 5 3 2 2 2 3 3 2 2 4 4 4 7 11 18 22 23 25 26 21 17 17 14 11 17 27 27 19 19 24 22 19 20 22 22 23 23 23 24 24 24
17 16 15 17 18 18 18 17 16 17 18 19 20 21 20 19 19 18 18 20 23 27 30 32 33 34 34 33 32 31 28 26 26 26 25 24 24 23 19 17 15 13 12 10 7 5 4 4 5 6 6 6 7 9 9 10 14 18 21 22 21 24 25 18 12 14 16 16 20 27 28 22 19 24 23 19 19 19 18 18 20 21 23 23 23
18 18 16 16 17 18 18 17 17 17 18 19 19 20 20 20 19 17 16 16 19 25 29 30 30 30 30 31 31 31 30 29 28 28 27 26 27 26 24 22 19 16 14 13 11 9 8 9 10 10 10 10 11 12 14 16 18 17 18 19 19 21 22 17 14 17 17 17 19 22 24 22 21 24 24 21 20 18 16 14 15 17 19 21 21
16 16 15 14 15 15 15 16 17 17 18 18 18 19 19 18 17 17 14 12 15 22 26 28 29 30 31 31 29 29 30 30 30 31 31 31 30 29 26 24 21 19 17 15 14 14 14 14 14 14 14 14 14 15 15 16 15 13 14 17 17 19 21 19 19 18 13 11 16 21 22 21 20 19 18 15 13 13 14 15 15 15 17 18 19
Wind_Direction
206 196 192 187 194 207 206 213 221 228 239 255 268 269 268 268 266 263 263 264 267 269 270 270 270 270 269 266 261 258 260 261 263 267 272 275 275 274 272 274 277 276 276 276 276 276 276 277 273 265 267 273 271 269 265 258 255 256 251 246 244 240 239 241 243 241 238 239 236 231 229 227 227 228 227 228 232 234 232 231 229 227 227 224 225
205 197 195 200 215 222 220 216 210 223 239 264 283 284 281 276 270 270 271 272 273 275 274 272 269 267 265 263 261 261 262 262 264 269 274 277 278 277 274 274 277 279 279 278 278 278 277 278 275 269 272 273 267 269 271 268 265 263 259 254 250 244 240 238 237 236 236 239 238 231 227 226 225 225 227 228 231 232 232 231 229 229 228 226 224
202 200 207 221 233 231 229 221 211 227 264 285 292 291 285 279 275 275 275 271 273 279 280 276 271 264 261 261 265 267 267 266 266 269 274 280 282 281 277 275 275 279 280 279 278 278 278 278 274 271 273 271 267 270 275 277 277 274 266 261 255 245 238 237 232 230 228 233 238 235 227 224 224 223 225 228 229 230 231 230 230 231 228 225 223
205 209 224 237 239 234 234 226 221 249 280 285 287 286 281 279 279 278 278 270 272 284 289 283 273 264 261 264 270 274 275 273 271 271 274 280 286 284 281 277 274 275 278 279 277 275 278 278 273 272 272 270 270 273 274 276 277 277 272 266 260 247 235 234 233 230 225 227 232 236 229 221 222 223 223 226 227 227 229 230 230 231 228 225 223
215 222 235 243 239 236 235 228 231 261 277 277 274 275 273 276 287 281 275 272 275 289 296 290 277 268 267 273 280 285 284 280 277 277 277 283 288 286 284 280 275 274 274 275 275 275 278 279 275 276 276 272 275 274 272 273 271 273 275 272 266 254 238 240 242 235 231 228 225 230 228 216 216 222 223 227 228 226 226 228 228 227 225 225 224
224 232 241 243 238 236 234 231 240 260 271 266 260 264 263 266 285 277 266 271 276 284 290 290 285 278 278 282 289 294 294 290 288 288 291 294 292 288 288 287 284 279 275 274 275 276 278 277 275 275 277 277 281 279 273 274 273 272 276 278 275 260 245 250 251 235 228 231 225 228 229 217 217 223 225 229 229 227 225 225 226 224 223 223 224
229 236 244 241 237 234 232 236 240 249 258 253 249 255 257 255 266 266 268 277 278 280 285 291 292 286 282 286 297 303 302 302 299 299 302 302 297 294 293 292 291 288 286 284 284 282 280 279 276 274 275 278 284 283 277 275 274 273 276 281 281 268 253 248 249 238 226 229 227 228 227 216 216 223 228 230 227 225 224 225 225 221 221 223 222
229 237 246 242 237 232 231 237 234 238 245 244 243 248 250 250 260 268 279 282 277 281 290 298 299 295 295 299 307 309 306 305 302 302 301 298 299 299 298 295 291 291 290 292 295 296 292 288 283 278 277 279 282 282 278 275 273 275 280 282 283 279 268 247 240 237 227 224 220 222 224 215 214 224 231 232 226 223 221 220 223 221 220 222 221
227 236 248 243 235 229 231 237 234 234 238 239 241 245 249 254 269 284 291 285 277 284 295 300 299 302 306 306 312 315 314 311 307 307 303 301 304 302 302 300 295 292 291 309 321 310 299 292 282 278 279 281 281 279 278 278 278 282 286 281 278 278 272 260 248 230 213 218 214 216 219 211 211 225 231 230 227 225 222 218 220 221 219 219 220
226 233 243 242 230 228 234 240 239 235 236 241 242 246 256 267 280 290 294 287 282 292 300 302 304 308 311 313 322 325 324 320 314 311 307 310 314 310 311 310 304 293 301 345 339 304 292 294 290 287 286 285 282 281 282 283 286 290 289 279 270 266 262 262 259 238 218 222 220 221 218 209 209 223 229 228 226 226 224 221 220 220 216 217 218
226 231 238 240 231 231 236 241 243 237 238 244 245 252 268 284 289 289 289 285 288 297 304 309 314 316 317 324 331 331 330 325 323 323 320 323 321 317 317 318 314 303 330 9 317 289 295 299 303 303 299 295 289 287 286 286 291 291 285 280 271 266 266 266 266 252 239 231 225 222 217 214 215 222 226 226 226 226 227 224 221 220 216 215 215
225 229 234 235 234 235 233 238 245 243 244 246 253 262 274 291 294 290 288 286 292 299 313 323 325 328 331 334 335 337 338 343 358 355 344 337 325 321 319 317 319 318 358 16 299 285 299 302 313 318 316 313 303 295 288 285 289 285 280 283 281 278 281 284 279 250 233 230 225 217 214 215 217 222 227 226 227 229 229 226 222 221 219 215 213
227 227 231 232 232 235 232 237 244 246 249 251 261 265 270 287 290 290 289 293 298 303 326 334 335 342 341 337 338 348 -0 17 12 2 357 356 343 337 332 326 330 332 11 14 306 294 307 319 336 337 335 330 316 306 288 278 279 278 279 290 295 294 293 295 284 232 215 221 216 206 205 210 215 221 226 226 228 230 230 228 225 224 222 216 212
230 228 231 231 231 235 236 241 243 246 251 254 263 263 268 282 285 291 292 299 303 306 332 346 346 344 336 330 333 351 7 18 2 1 12 9 4 6 354 348 348 342 14 29 318 315 328 335 347 347 342 335 323 316 280 262 266 278 285 296 306 307 299 292 257 214 212 208 195 193 199 208 217 217 221 226 227 228 227 228 228 228 225 219 214
233 230 231 232 233 234 237 244 247 250 254 256 260 260 269 276 279 292 295 305 308 309 329 346 350 349 342 326 314 344 355 352 351 354 3 2 7 19 7 7 6 350 12 68 324 333 348 346 351 352 347 335 317 302 264 256 263 281 288 291 301 305 299 315 114 172 189 182 182 192 202 213 221 213 216 227 227 227 230 231 231 230 228 223 217
233 233 233 233 235 236 238 246 252 259 260 256 257 259 270 273 275 289 296 307 312 314 323 330 345 353 345 312 222 335 333 327 340 340 346 352 357 9 9 9 10 2 15 73 347 343 359 358 356 356 356 352 321 292 262 261 266 278 282 283 295 294 276 331 74 127 155 165 181 199 211 219 222 216 219 229 229 230 239 242 235 229 227 223 219
233 234 235 234 237 239 242 246 252 260 261 257 258 261 271 274 276 285 294 305 307 308 315 324 339 342 324 286 269 328 237 318 331 323 335 342 344 357 8 9 8 16 18 31 40 358 357 358 359 357 0 8 347 297 247 250 261 277 282 286 294 245 237 271 332 128 146 164 196 211 222 224 223 221 221 229 236 235 242 249 239 228 226 222 218
234 234 236 236 237 239 242 246 248 253 257 260 262 262 271 276 279 285 294 307 308 302 307 321 335 333 329 316 288 279 266 309 333 305 327 335 339 350 2 6 8 28 27 19 20 8 0 355 357 359 358 357 345 237 220 235 254 273 275 280 282 197 219 233 255 242 182 183 218 227 229 229 233 234 228 229 233 233 237 244 237 228 227 221 216
234 234 236 236 235 237 240 244 245 248 253 259 263 264 270 276 279 283 293 308 309 301 303 317 326 320 322 326 315 303 287 289 273 275 325 327 328 339 354 2 8 28 27 19 14 10 8 358 356 358 357 355 353 195 197 220 248 259 237 245 356 157 206 206 211 225 201 202 228 236 237 234 238 238 233 231 231 229 229 235 234 226 224 217 211
234 234 236 236 235 235 237 243 244 244 249 256 261 264 269 273 275 280 289 300 307 305 301 306 312 310 311 316 320 325 321 301 268 263 270 301 319 330 344 353 5 20 20 16 12 14 14 5 356 354 355 358 5 156 181 198 236 250 207 215 10 58 208 202 208 209 195 211 235 244 244 234 237 237 236 239 233 224 220 226 228 220 217 212 207
235 236 237 235 234 235 236 243 245 243 247 253 259 263 268 272 272 277 286 294 302 301 294 295 302 305 307 312 316 322 329 326 278 248 240 249 295 314 332 345 358 7 13 10 7 23 21 8 2 355 359 8 19 136 182 180 192 180 155 180 340 296 245 208 216 214 196 213 235 247 247 234 235 236 242 245 223 212 213 222 225 219 218 213 208
235 237 238 235 234 236 238 243 247 246 246 250 256 261 266 270 271 275 283 294 303 298 287 290 298 301 303 305 309 316 323 323 293 293 271 247 256 279 310 331 341 348 -0 3 4 35 29 10 2 353 359 7 27 91 149 154 184 192 140 145 119 275 254 219 212 209 203 215 228 240 241 234 235 235 241 229 199 204 219 224 223 220 221 215 210
234 238 238 236 235 236 240 246 250 249 246 247 252 257 262 266 269 274 280 290 302 300 288 286 294 299 303 304 306 312 311 293 293 305 294 252 260 279 303 320 312 322 347 358 2 30 26 13 4 348 353 354 15 49 32 9 343 309 268 289 1 1 246 225 217 195 195 213 221 227 233 236 236 236 239 216 196 209 221 221 221 217 216 213 210
233 238 236 235 238 239 241 246 250 248 243 243 246 251 256 262 267 270 275 284 296 298 287 284 291 296 301 305 307 310 309 305 303 304 296 282 279 269 294 319 315 315 341 355 0 8 14 18 20 20 19 12 14 20 0 310 315 306 295 287 296 333 269 233 228 206 193 210 215 220 228 236 233 232 242 225 209 215 217 216 218 212 210 210 209
232 236 236 237 240 242 243 245 247 244 239 238 243 249 254 259 266 268 269 276 289 292 282 278 287 292 298 301 302 305 308 312 313 308 301 292 284 273 289 310 297 309 339 350 351 0 11 19 31 45 49 51 28 357 344 317 292 280 285 272 271 297 276 247 237 218 212 216 212 212 213 220 228 230 239 233 221 218 218 219 216 210 210 211 210
234 236 239 242 244 244 244 246 247 243 238 239 243 248 253 258 264 265 264 267 278 283 276 275 283 290 296 297 297 302 306 310 313 311 305 295 286 283 293 310 298 300 337 341 340 356 9 10 30 46 36 27 10 343 313 309 284 263 267 253 248 259 250 248 239 224 221 222 220 214 204 201 212 223 237 242 228 215 217 220 218 215 212 212 212
237 239 243 246 247 245 244 246 247 244 240 240 244 247 250 256 261 262 258 259 267 272 271 276 284 291 293 290 291 300 307 312 316 315 309 300 294 292 290 299 312 316 328 336 342 343 353 9 28 42 27 16 5 356 321 295 271 253 251 240 231 230 234 241 236 226 223 222 220 221 211 198 195 207 230 250 233 212 214 222 222 222 218 216 216
239 241 245 248 249 247 246 247 247 245 242 240 246 249 249 252 258 260 254 253 262 267 268 274 284 293 292 286 287 295 307 318 319 316 313 307 298 293 287 271 261 325 320 313 344 325 336 9 12 15 13 6 354 345 333 293 253 242 239 233 217 211 223 234 236 232 233 233 223 218 222 209 195 195 210 236 235 213 215 223 226 226 223 221 221
238 241 244 248 250 250 250 250 249 247 244 243 247 251 251 251 255 259 255 253 260 265 266 272 283 292 290 284 285 292 304 314 316 317 315 309 299 295 291 274 246 236 298 303 311 267 278 0 0 325 345 350 345 332 329 305 241 221 226 229 218 215 230 237 241 236 231 242 239 224 226 222 211 201 201 216 224 211 209 219 227 228 226 224 223
234 238 241 244 247 249 250 251 251 249 246 246 250 253 255 255 256 260 259 256 261 265 266 270 279 287 287 284 285 290 297 301 303 312 313 304 300 303 301 287 258 233 223 242 292 270 268 338 345 322 331 342 346 337 329 335 276 207 214 221 213 215 232 243 253 249 236 240 246 238 232 229 225 216 208 212 217 212 209 216 223 225 226 228 228
232 232 236 240 244 247 249 250 252 251 249 248 250 254 258 259 259 261 262 261 263 267 268 270 275 283 286 285 285 287 292 293 293 301 304 298 293 295 297 293 277 255 238 223 231 273 278 312 327 329 336 343 349 347 333 347 350 197 198 202 205 212 228 255 274 266 249 242 246 242 234 231 232 228 222 219 218 217 216 219 223 224 225 228 230
237 233 235 240 245 247 249 251 253 253 252 250 251 254 259 262 262 264 266 267 267 268 271 272 274 282 286 283 283 285 289 291 290 292 294 291 286 285 291 291 284 272 252 226 218 269 288 306 325 331 338 345 349 348 333 335 344 282 204 200 209 227 250 273 290 288 260 242 245 244 235 232 234 235 234 231 230 229 225 226 229 229 229 230 233
243 240 239 240 244 247 248 250 253 254 253 252 254 258 261 264 266 268 269 271 270 270 272 273 274 280 283 281 280 282 285 288 291 289 287 284 283 282 282 283 282 280 258 230 226 268 295 311 327 330 337 347 347 343 336 330 323 308 270 234 235 251 267 275 284 290 261 232 241 246 240 239 240 240 243 241 244 246 241 238 238 237 237 235 234
249 246 244 242 241 243 244 247 251 252 252 253 256 261 264 266 268 270 270 269 270 270 270 271 273 277 279 278 278 280 282 285 288 288 282 279 280 277 272 275 283 282 260 240 237 253 285 306 320 326 332 339 339 340 343 338 328 318 301 283 276 276 281 282 280 287 258 223 237 240 236 239 241 241 244 246 250 254 254 252 250 249 249 247 244
254 251 248 245 242 241 242 244 248 250 251 252 256 260 265 267 270 272 271 268 267 268 268 269 272 275 276 276 277 280 281 283 285 285 282 279 276 269 265 275 286 282 275 277 270 258 267 290 306 317 325 332 338 341 342 339 332 326 317 309 300 291 285 279 270 267 240 226 235 235 230 234 239 237 237 242 252 257 259 260 259 259 258 256 255
255 255 252 247 246 247 246 246 249 251 253 254 256 260 264 267 270 272 272 268 264 264 265 267 270 273 274 274 277 281 281 282 284 283 281 277 270 262 263 274 281 280 286 294 289 279 281 293 301 314 324 332 337 338 338 337 332 327 323 318 308 291 273 260 256 259 252 239 238 236 232 233 239 239 235 242 254 256 256 256 255 256 256 255 256
251 252 251 248 247 248 249 250 252 254 257 259 260 261 264 266 269 270 268 265 262 260 260 263 266 269 270 272 276 278 278 278 281 282 280 275 265 257 259 267 271 279 291 294 286 283 293 304 312 326 336 337 337 339 339 337 333 326 317 307 295 277 265 259 265 278 263 242 232 235 237 240 248 254 250 248 250 249 250 251 252 253 252 252 252
251 250 249 248 247 248 249 251 253 255 257 260 263 265 266 267 267 267 265 262 260 258 257 259 262 265 268 270 273 274 273 273 276 278 277 269 258 252 254 257 263 276 283 278 271 275 286 299 311 325 333 335 335 337 337 333 329 324 303 296 298 286 277 260 92 91 211 182 144 148 143 165 234 257 253 244 242 244 250 257 260 260 257 254 254
249 251 250 250 252 253 255 256 256 256 256 259 262 265 267 268 267 266 264 261 260 258 256 257 260 263 266 268 270 270 270 271 273 274 272 262 251 247 246 247 254 262 261 254 254 260 268 282 298 310 319 325 327 328 329 326 321 318 303 297 290 209 180 149 113 106 128 129 109 101 100 100 106 109 100 87 80 80 79 78 64 17 3 358 343
245 251 253 255 258 260 261 262 260 259 258 258 260 262 264 267 267 266 264 262 261 259 259 259 261 264 266 267 267 267 268 271 271 273 271 260 247 242 238 236 241 244 244 246 248 249 253 266 281 290 293 295 301 308 313 315 316 313 302 293 249 159 158 159 138 119 122 121 109 102 100 102 103 101 95 86 80 80 81 80 75 67 64 65 64
248 250 254 257 260 261 262 262 262 260 259 259 260 261 263 265 265 265 264 262 261 259 258 260 262 264 266 268 267 265 267 269 268 271 270 258 247 242 237 235 236 235 237 242 247 254 263 269 275 277 270 264 277 292 295 295 303 312 310 301 247 165 153 138 125 125 130 127 114 102 97 101 101 96 91 86 80 79 79 74 68 63 63 66 68
254 252 253 254 255 258 260 262 261 261 260 261 262 263 263 264 264 264 262 261 260 258 256 256 259 261 264 265 263 262 263 263 262 264 263 254 247 242 238 238 238 236 236 241 250 261 269 272 275 278 273 268 278 286 281 277 287 302 304 295 225 169 147 116 101 107 119 123 114 98 89 94 97 90 85 82 78 76 73 69 66 64 65 67 68
261 258 256 254 253 254 258 262 264 265 265 265 266 266 265 265 264 263 262 260 259 257 254 253 254 257 260 260 258 257 257 257 254 252 249 241 236 234 234 236 236 234 233 238 247 257 265 273 277 280 279 280 287 284 267 257 270 283 289 282 211 176 151 119 107 106 109 112 107 94 83 88 94 89 83 79 77 76 73 72 72 72 72 72 72
267 263 261 259 257 256 259 262 264 268 272 273 271 268 266 267 265 263 261 260 258 256 253 252 252 254 256 255 254 253 253 252 247 235 224 222 227 228 224 221 220 226 232 235 243 251 258 265 271 273 274 280 293 289 259 253 274 281 288 284 221 195 157 111 105 109 109 110 105 95 84 85 90 88 83 79 79 79 77 76 76 75 74 74 73
275 269 266 264 263 260 260 262 263 265 269 276 279 274 268 266 266 264 260 258 257 256 254 253 252 251 251 250 249 250 251 248 238 222 214 215 213 203 200 201 204 218 230 236 243 251 256 257 261 267 270 273 281 283 271 275 283 286 295 285 197 180 143 113 113 119 120 116 108 97 88 85 90 89 85 82 81 80 80 79 78 76 74 73 72
280 276 272 269 268 265 264 265 266 266 266 269 276 279 276 270 267 266 263 259 257 256 255 253 252 250 250 247 245 247 247 239 226 216 213 210 199 188 189 194 201 215 229 237 242 246 245 244 251 261 261 263 268 269 267 273 285 295 283 171 151 142 127 122 126 128 122 117 109 100 90 87 92 90 87 86 85 84 82 81 80 79 77 74 73
277 276 274 273 272 271 270 270 270 269 266 264 266 271 277 277 272 268 265 260 256 255 254 253 252 251 251 248 245 245 240 230 221 216 212 206 195 187 187 189 192 197 194 192 197 198 213 216 224 239 241 246 251 236 232 280 358 58 135 136 130 124 120 120 124 123 117 116 113 106 100 99 98 94 90 90 90 87 84 82 81 80 79 77 76
273 272 271 271 272 273 273 273 273 271 268 264 262 262 267 274 276 272 268 262 256 253 254 255 255 254 253 250 246 242 235 226 221 216 211 206 197 189 184 176 171 167 155 151 155 156 170 180 181 191 183 166 145 119 102 99 113 127 130 125 122 122 119 115 116 115 111 116 121 117 114 111 104 101 99 94 91 87 83 82 81 80 80 78 77
273 270 268 267 269 272 272 270 270 273 272 267 264 262 262 266 272 274 274 269 259 253 252 255 257 256 253 250 246 240 232 224 217 212 211 206 197 188 177 163 157 151 142 138 135 131 131 126 124 123 115 109 110 109 113 127 136 139 133 126 127 126 120 113 108 106 105 113 121 119 116 116 113 108 105 98 92 88 84 82 82 81 80 79 77
274 271 268 266 265 265 264 265 267 272 274 270 266 265 264 264 266 271 277 276 263 254 251 253 254 253 252 252 248 239 231 223 214 210 209 202 194 186 174 161 153 144 139 141 136 128 122 119 117 113 108 113 119 122 132 139 142 145 139 135 139 134 123 116 116 112 108 116 125 122 117 121 122 114 108 100 92 86 85 86 86 85 85 83 80
276 272 267 263 260 254 253 260 266 270 273 272 269 268 267 267 268 269 271 269 260 254 251 250 249 250 252 252 248 241 234 225 215 210 207 201 193 184 173 162 152 145 145 144 137 131 128 124 123 118 115 121 128 132 139 143 145 150 146 141 145 139 128 124 126 124 115 125 137 132 126 129 131 121 114 106 94 86 87 90 91 92 94 93 90
Height
839 840 840 841 841 842 842 843 844 844 845 845 845 845 845 846 846 846 846 846 846 846 847 847 847 847 847 846 846 846 845 845 844 844 844 844 844 844 844 844 844 844 844 843 843 843 843 844 846 848 848 846 844 843 841 840 840 840 839 839 838 839 840 842 843 844 844 844 843 843 844 845 846 847 848 849 849 851 852 853 855 856 857 859 860
839 840 840 841 841 842 843 843 844 844 845 845 845 845 845 846 846 846 846 846 846 846 846 846 846 846 846 846 845 845 844 844 844 843 843 843 843 843 843 843 843 843 842 842 841 841 841 842 844 845 844 843 841 840 838 837 838 838 837 836 836 837 839 842 843 842 842 842 842 842 843 843 844 845 846 846 847 849 850 851 853 854 855 857 858
839 840 840 841 841 842 843 843 844 844 845 845 845 845 845 846 845 845 845 845 845 845 845 845 845 846 845 845 845 844 844 843 843 842 842 842 841 841 841 841 841 841 841 840 839 839 839 840 842 843 841 839 838 838 837 836 835 835 834 833 833 835 838 840 839 838 839 840 840 841 841 842 843 843 844 844 845 846 848 849 851 852 854 855 856
839 840 840 841 841 842 843 843 844 844 845 845 845 846 845 846 845 845 845 845 845 845 845 845 845 845 845 845 844 844 843 842 842 842 841 841 841 840 840 840 840 839 839 838 837 837 837 838 839 839 837 836 836 836 835 833 832 830 830 829 830 833 836 837 836 836 837 838 838 839 840 840 841 842 842 842 843 844 846 847 849 850 852 853 854
839 840 840 841 842 842 843 843 844 844 845 845 845 846 846 846 845 845 845 845 845 845 845 844 844 845 845 845 844 843 842 842 841 840 840 840 839 839 838 838 838 837 837 836 836 835 835 836 836 834 833 834 834 833 832 830 828 827 826 826 827 831 834 835 835 837 837 836 836 837 838 839 840 840 840 841 841 842 844 845 847 848 850 851 853
839 840 841 841 842 842 843 843 844 844 845 845 846 846 846 846 845 845 845 845 845 845 845 844 844 844 844 844 843 842 842 841 840 839 839 839 838 837 837 836 836 836 835 835 834 834 834 834 834 832 831 832 831 830 829 827 825 824 824 824 825 829 833 833 834 835 835 836 836 836 837 838 838 838 839 839 840 841 842 843 845 846 848 849 851
840 841 841 841 842 842 843 844 844 844 845 845 846 846 846 846 845 845 845 845 844 844 844 844 844 844 843 843 842 842 841 840 839 838 838 837 837 836 835 835 834 834 834 833 833 833 833 833 832 830 830 830 829 828 826 824 823 822 822 822 823 827 830 832 833 834 834 834 835 835 836 836 837 837 837 838 838 839 840 841 843 845 846 848 849
840 841 841 841 842 842 843 844 844 844 845 845 846 846 846 846 845 845 845 844 844 844 844 844 843 843 842 842 841 840 840 839 838 837 837 836 836 834 833 833 832 833 832 832 832 831 831 831 830 829 828 828 827 826 824 823 822 821 821 820 822 825 826 829 832 832 832 833 834 833 834 834 835 836 836 836 837 837 838 840 841 843 844 846 847
840 841 841 841 842 842 843 844 844 845 845 845 846 846 846 846 845 845 844 844 844 844 843 843 843 842 842 841 840 839 838 837 836 836 835 835 834 833 832 831 831 831 831 832 832 830 829 828 828 827 826 826 825 825 823 822 821 821 820 820 822 824 824 826 828 828 830 832 832 831 831 833 834 834 835 835 835 836 837 838 840 841 843 844 845
840 841 841 841 842 842 843 844 844 845 845 845 846 846 845 845 845 844 844 844 844 844 843 843 843 842 841 840 839 838 837 836 835 834 834 833 833 832 831 829 829 829 830 834 833 827 826 826 825 824 824 824 824 823 822 821 821 820 819 819 821 823 823 824 825 826 828 829 829 829 830 831 832 833 834 834 834 835 836 836 838 840 841 843 844
839 840 841 841 842 842 843 844 844 845 845 845 845 846 845 845 845 844 844 844 844 844 843 843 842 841 840 839 838 837 836 835 834 833 833 832 832 831 829 828 828 828 830 833 830 825 825 825 824 823 822 821 821 821 821 820 820 819 818 818 819 821 822 822 823 825 826 826 827 828 829 830 831 832 833 833 834 834 834 835 836 838 840 841 842
839 840 840 841 841 842 843 843 844 844 845 845 845 845 845 845 844 844 844 844 844 843 843 842 841 840 839 838 838 837 836 834 833 833 832 831 831 830 829 828 827 827 829 830 826 823 824 824 823 822 820 819 819 819 819 819 819 818 818 818 818 820 820 820 821 822 824 824 825 826 827 829 830 831 832 832 832 833 833 834 835 837 838 839 841
838 839 840 840 841 841 842 843 843 844 845 845 845 845 845 845 844 844 844 844 844 843 843 842 840 839 838 837 837 836 835 834 833 832 831 831 830 829 828 827 826 826 828 828 823 821 824 823 822 821 819 818 817 818 818 818 818 818 818 818 818 819 819 819 819 820 822 823 824 825 826 828 829 830 830 831 831 832 832 833 834 836 837 838 840
837 838 839 839 840 841 842 842 843 844 844 844 845 845 845 845 844 844 844 844 844 843 843 841 840 840 838 838 837 836 834 833 833 832 831 831 830 829 828 827 826 825 827 827 822 820 822 821 820 819 818 817 817 817 817 818 818 818 818 818 818 818 819 819 819 819 821 822 823 824 826 827 828 829 829 830 831 831 832 833 834 835 836 838 839
836 837 838 839 839 840 841 842 843 843 844 844 844 845 845 844 844 844 844 844 843 843 842 841 840 840 839 840 839 837 836 833 832 832 831 831 830 830 829 827 827 825 826 827 822 819 821 820 819 818 817 817 817 817 817 818 818 818 818 818 818 818 818 818 819 819 821 822 823 824 825 826 827 828 829 830 831 831 832 833 834 835 836 837 838
834 835 837 838 838 839 840 841 842 843 843 844 844 844 844 844 844 844 844 844 843 842 841 841 840 840 840 841 840 840 841 836 832 831 830 831 830 830 829 828 827 826 825 826 823 820 820 820 819 818 818 817 817 817 817 818 818 818 818 818 819 818 818 819 819 820 821 822 823 824 825 826 827 828 829 830 831 832 832 833 834 834 835 836 837
833 834 835 837 838 839 839 840 841 842 843 843 844 844 844 844 844 844 844 844 843 842 841 840 840 840 840 841 841 843 842 837 834 832 830 830 830 829 829 828 827 826 825 825 823 821 820 819 819 819 818 818 818 818 818 818 818 818 818 819 819 819 819 820 820 820 821 822 823 824 825 826 827 828 829 830 831 832 832 833 833 834 834 836 837
831 833 834 835 836 837 838 839 840 841 842 842 843 844 844 844 844 844 844 843 842 841 840 840 840 839 839 839 840 841 839 837 837 836 831 829 829 829 828 827 827 826 825 824 823 822 821 820 819 819 818 818 817 818 818 818 818 818 819 819 820 820 820 820 820 821 821 822 823 824 825 826 826 827 828 830 831 832 832 833 833 834 834 835 836
830 832 833 834 835 836 837 838 839 840 841 842 842 843 843 843 844 843 843 842 842 841 840 839 839 839 839 838 838 838 837 836 837 837 835 831 828 828 828 827 826 825 824 824 823 822 822 821 820 819 818 818 817 818 818 818 818 818 819 819 819 820 820 820 821 821 821 822 823 824 825 825 826 827 828 829 830 831 832 832 833 833 834 835 836
829 830 831 832 833 834 835 836 837 839 840 841 841 842 842 842 843 843 842 842 841 840 840 839 839 838 838 838 837 836 836 835 835 836 837 836 831 827 826 825 825 824 824 824 823 822 822 821 821 820 819 818 818 818 818 818 818 818 818 819 819 819 820 820 821 821 822 823 824 824 825 825 826 826 827 828 829 830 831 832 833 833 834 834 835
827 829 830 831 832 833 834 835 836 837 838 839 840 840 841 841 841 841 841 840 840 839 839 838 838 838 838 837 836 836 835 834 834 834 835 836 834 829 826 825 824 824 824 824 823 823 822 822 821 820 819 819 818 818 818 818 818 818 818 818 818 819 820 820 821 821 822 823 824 825 825 826 826 826 827 828 828 829 830 831 832 833 833 834 834
826 827 828 829 830 831 832 833 834 836 837 838 838 839 839 840 840 840 840 839 839 839 838 838 838 837 837 836 835 835 834 833 833 833 833 834 834 830 827 827 825 824 824 824 823 823 823 822 821 820 820 819 819 818 818 818 818 818 818 818 819 819 819 820 820 821 822 823 824 825 826 826 826 826 827 827 828 829 830 831 831 832 833 834 834
824 826 827 828 829 830 831 832 833 834 835 836 837 838 838 839 839 839 839 838 838 838 837 837 837 837 836 835 835 834 834 833 832 833 832 832 832 830 828 827 827 825 824 823 823 823 823 822 821 821 820 820 819 819 818 818 818 818 818 818 819 819 819 820 820 821 821 822 824 825 826 827 827 827 827 827 828 828 829 830 831 832 833 834 835
823 824 825 826 828 829 830 831 832 832 833 834 835 836 837 837 837 837 837 837 837 837 837 836 836 836 835 835 834 833 833 833 832 831 831 831 831 830 828 827 827 826 825 824 823 823 822 822 821 821 820 820 820 819 819 819 818 818 818 818 819 819 819 820 820 821 821 822 823 825 826 827 827 827 827 828 828 829 829 830 831 832 832 833 834
821 822 824 825 826 827 829 829 830 831 832 833 834 835 835 835 836 836 836 836 836 836 835 835 835 835 834 834 833 833 832 831 831 830 830 829 829 829 828 828 827 826 825 824 823 823 822 822 821 821 820 820 820 820 819 819 819 819 819 819 819 819 819 820 820 821 821 822 823 824 825 826 827 827 828 828 828 829 830 830 831 832 832 833 834
820 821 823 824 825 826 827 828 829 830 830 831 832 833 833 833 834 834 834 834 835 834 834 834 834 834 833 833 832 832 831 831 830 829 829 828 828 828 828 827 827 826 825 825 823 823 822 822 822 821 821 820 820 820 819 819 819 819 819 819 819 820 820 820 821 821 822 822 823 824 825 826 827 828 828 828 829 829 830 830 831 832 832 833 834
818 820 821 823 824 825 826 826 827 828 829 830 831 831 832 832 832 832 832 833 833 833 833 833 833 833 832 832 831 831 830 830 829 829 828 828 827 827 827 828 828 827 825 824 824 823 823 822 822 822 821 821 820 820 819 819 818 818 819 819 819 820 820 821 821 821 822 823 823 824 825 826 826 827 828 828 829 830 830 831 831 832 833 833 834
817 818 820 821 822 823 824 825 825 826 827 828 829 829 830 830 830 830 830 831 831 831 831 831 831 831 831 830 830 830 830 829 829 828 827 827 827 827 827 827 829 829 827 825 824 823 823 822 822 822 821 821 820 819 819 818 818 818 818 819 819 819 820 821 821 822 822 823 823 824 825 825 826 827 827 828 829 829 830 831 832 832 833 834 834
814 816 817 819 820 821 822 823 824 824 825 826 827 828 828 828 828 828 828 829 829 829 829 829 829 829 829 829 829 829 829 829 828 827 826 826 826 826 826 826 827 829 829 828 825 823 823 823 822 822 821 821 820 819 819 818 818 817 818 818 819 819 820 820 821 821 822 822 823 824 824 825 825 826 827 827 828 829 830 831 832 832 833 834 834
812 813 815 816 818 819 820 821 822 822 823 824 825 826 826 826 826 827 827 828 828 827 827 827 827 828 828 827 828 828 828 828 827 827 826 825 825 825 825 825 825 826 826 828 826 822 822 822 821 821 821 820 820 819 818 818 817 817 817 818 818 819 819 820 820 820 821 821 822 823 824 824 825 825 826 826 827 828 829 830 831 832 833 833 834
810 811 813 814 815 817 817 819 820 820 821 822 823 824 824 824 825 825 826 826 826 826 826 826 826 826 826 826 826 826 826 826 826 826 825 824 825 824 824 824 824 824 824 825 826 823 822 822 821 821 820 819 819 818 818 818 817 817 817 817 818 818 819 819 819 820 820 821 821 822 823 824 824 825 825 826 827 828 829 830 831 831 832 833 834
809 809 810 812 813 814 815 816 817 818 819 820 821 822 822 822 823 823 824 824 825 824 824 825 825 825 825 825 825 825 825 825 824 824 824 823 823 823 823 823 822 823 822 823 823 822 821 821 820 820 819 819 819 818 818 817 817 817 817 817 817 817 818 818 819 819 819 820 821 821 822 823 824 824 825 825 826 827 828 829 830 831 831 832 833
807 807 808 809 810 812 813 814 815 816 817 818 819 819 820 820 821 821 822 822 823 823 823 823 823 824 824 823 823 823 823 823 823 823 822 822 822 822 822 822 821 822 821 821 821 820 819 819 819 819 818 818 818 817 817 817 816 816 816 816 817 817 817 817 818 818 819 819 820 821 822 823 824 824 824 824 825 826 827 828 829 830 831 831 832
805 805 806 807 808 809 810 811 812 813 814 815 816 817 818 818 819 820 820 820 820 821 821 821 822 822 822 822 822 822 822 822 821 821 821 821 820 820 820 820 820 820 820 820 820 820 819 818 818 817 817 817 817 816 816 816 815 815 815 815 815 816 816 816 817 818 818 819 819 819 821 822 822 823 822 823 824 825 827 828 829 829 830 830 830
803 803 804 805 806 807 808 809 810 811 812 813 814 815 815 816 817 817 818 818 818 819 819 819 820 820 820 821 821 821 821 821 820 820 820 820 819 819 819 819 819 819 819 819 819 819 818 818 818 817 816 816 816 816 815 815 814 814 814 814 814 815 815 816 817 817 818 818 817 818 820 821 820 820 820 821 823 825 826 827 828 828 829 829 829
800 801 802 803 804 805 806 807 808 808 809 810 811 812 813 814 815 815 816 816 816 817 817 818 818 818 819 819 819 820 820 820 819 819 819 819 819 818 818 818 818 818 817 817 817 817 817 817 817 817 816 816 815 815 815 814 814 814 814 814 814 814 815 815 816 816 817 817 817 818 819 819 819 819 820 821 823 824 825 826 826 827 827 827 828
798 799 800 801 802 803 804 805 806 806 807 808 809 810 811 811 812 813 813 814 814 815 815 816 816 817 817 817 817 818 818 818 818 818 818 818 818 818 818 817 817 817 817 816 816 815 815 815 815 815 814 814 814 813 813 813 813 813 814 814 815 815 815 815 815 815 816 816 816 817 817 818 818 818 818 820 822 823 824 824 824 824 824 825 825
796 797 797 798 799 800 801 802 803 804 805 806 807 807 808 809 809 810 810 811 812 812 813 814 814 815 815 815 815 816 816 816 816 816 817 816 816 816 817 817 817 817 817 816 816 816 815 815 814 814 813 813 812 812 812 812 812 813 814 814 815 815 815 815 815 814 815 815 816 817 817 817 817 817 818 819 821 823 823 823 823 822 822 822 823
794 795 795 796 796 797 798 799 800 802 803 804 804 805 806 806 807 807 808 808 809 810 811 811 812 812 812 813 813 813 814 814 814 815 815 815 815 815 815 815 816 816 816 816 816 816 816 815 815 814 814 814 814 813 813 813 813 813 814 814 814 815 814 814 814 814 814 814 815 816 817 818 818 819 819 820 822 822 823 822 822 822 821 821 821
792 793 793 794 794 795 796 797 798 799 800 801 802 802 803 804 804 805 805 806 806 807 808 809 809 810 810 810 811 811 812 812 812 813 813 813 813 813 814 814 814 815 815 815 815 815 815 815 815 815 815 815 814 814 814 813 813 813 813 814 814 814 814 814 814 814 814 814 815 817 818 819 820 820 820 821 822 822 822 822 822 823 822 822 822
789 790 791 792 792 793 793 794 795 796 797 798 798 799 800 801 802 802 803 803 804 805 805 806 806 807 807 808 808 809 810 810 811 811 812 812 812 812 812 812 813 814 814 814 814 814 815 814 814 814 814 813 813 813 813 812 812 812 812 813 813 813 813 813 814 815 815 815 815 817 819 820 821 821 821 821 822 823 823 823 824 824 824 824 823
787 788 789 790 790 791 791 792 793 793 794 795 795 797 797 798 799 799 800 801 801 802 802 803 804 804 805 806 806 807 808 808 809 809 810 810 811 811 811 811 812 812 812 813 813 813 813 813 813 813 812 812 812 811 811 810 810 810 811 811 812 813 813 813 815 817 817 815 815 817 821 822 821 822 822 822 823 824 824 825 826 827 827 826 826
785 785 786 787 788 789 789 790 791 791 791 792 793 794 795 795 796 796 797 798 798 799 799 800 801 801 802 803 804 804 805 806 806 807 808 808 809 810 810 810 811 811 811 811 812 812 812 812 811 811 811 811 811 810 809 809 809 809 810 810 811 813 813 814 816 819 820 818 816 818 822 824 823 823 824 825 826 826 827 828 829 830 829 829 829
783 783 784 785 785 786 787 788 788 789 789 790 791 792 792 793 794 794 794 795 795 796 796 797 798 799 799 800 801 802 803 803 804 805 806 807 808 809 809 809 810 810 810 810 811 811 811 811 810 810 810 810 810 809 809 809 809 809 809 810 811 813 814 815 817 820 822 821 817 818 824 827 826 825 827 829 830 830 831 832 832 832 832 832 831
781 781 782 782 783 784 784 785 786 786 787 788 789 789 789 790 791 791 791 792 792 792 793 793 794 795 796 797 798 799 800 801 802 803 804 805 807 807 808 808 809 809 809 809 809 810 810 810 809 809 809 809 809 809 809 809 809 809 809 810 811 812 813 815 818 821 823 822 818 819 826 831 830 828 829 832 833 833 833 834 834 834 834 833 833
779 779 780 780 780 781 782 782 783 784 785 786 786 787 787 787 787 788 789 789 789 789 789 790 791 792 793 794 795 796 796 797 798 800 802 803 804 805 806 806 807 808 808 808 808 809 809 809 809 808 808 809 809 808 808 808 808 808 809 809 810 811 812 815 818 821 823 823 821 821 828 833 832 830 832 835 835 835 835 836 836 836 835 835 835
777 777 778 778 778 779 780 780 781 781 782 783 784 784 784 784 784 785 785 786 786 787 787 787 788 789 790 791 791 792 793 794 795 796 798 800 801 803 804 805 806 807 807 807 808 808 808 808 808 808 808 808 808 808 808 808 808 808 808 809 810 811 813 816 820 822 824 825 823 822 829 835 834 832 835 837 837 837 837 838 838 838 837 837 837
775 775 776 776 776 777 778 778 778 779 779 780 781 781 782 782 782 782 782 782 783 784 785 785 786 786 786 787 788 788 789 791 792 793 795 798 799 801 802 803 805 806 806 807 807 808 808 808 808 808 808 808 808 808 808 808 808 808 808 810 811 812 813 817 821 823 824 825 824 823 827 835 836 834 836 839 839 839 840 840 840 840 839 839 839
773 773 774 774 775 775 776 776 776 776 777 778 778 778 779 780 780 780 780 780 781 781 782 782 783 783 784 784 784 785 786 788 790 791 792 795 797 798 800 802 804 805 806 807 807 808 808 808 808 808 808 808 808 808 809 809 809 810 809 811 813 813 814 817 821 823 824 826 827 826 827 833 836 835 837 840 840 841 842 842 842 842 842 841 841
770 771 771 772 773 773 773 774 774 774 775 775 775 776 776 777 777 778 778 778 779 779 779 779 780 781 783 783 783 783 782 783 785 787 789 791 793 795 797 799 802 804 805 806 807 808 808 808 808 808 808 809 809 809 810 810 811 811 811 812 813 814 814 817 820 824 826 828 829 829 829 833 836 836 837 839 841 843 843 844 844 844 844 843 843
768 769 769 770 770 771 771 771 772 772 772 772 773 773 774 774 775 775 776 776 776 776 776 776 777 777 779 780 782 783 782 781 781 782 784 786 788 791 794 797 800 803 805 806 807 807 808 809 809 810 810 810 810 810 811 811 812 813 813 813 814 814 815 818 820 823 826 829 830 830 830 833 836 837 837 838 841 845 846 845 845 846 845 845 845